TV
NORAD ID: 37392
Int'l Code: 2011-016A
Perigee: 35,789.5 km
Apogee: 35,796.6 km
Inclination: 0.0 °
Period: 1,436.1 minutes
Semi major axis: 42163 km
Launch date: April 22, 2011
Source: International Telecommunications Satellite Organiz (ITSO)
Comments: INTELSAT NEW DAWN was built by Orbital Sciences Corp. and is based on that firm's Star 2 platform. The 6,600-pound (3,000-kg) spacecraft will link Africa, Western Europe, the Middle East and Pakistan through Ku-band and C-band transponders and antennas. Intelsat New Dawn is geared for wireless broadband, television and other media applications.
Two Line Element Set (TLE):
1 37392U 11016A 13143.87587962 .00000155 00000-0 10000-3 0 4436
2 37392 000.0435 085.6807 0000841 339.1054 164.9885 01.00274416 7687
Source: AFSPC
NASA's NSSDC Master Catalog entry for INTELSAT NEW DAWN